RH
70 78 80 85 86 85 85 82 80 77 77 79 82 84 85 86 84 88 90 88 87 85 90 90 89 90 90 94 96 96 94 95 97 97 94 89 88 87 86 94 92 96 96
64 71 76 80 80 86 84 80 79 81 83 85 84 84 84 86 88 90 91 87 89 90 89 91 91 87 92 93 98 98 96 93 97 95 95 94 92 88 86 90 92 87 97
71 76 80 84 84 86 83 82 81 84 84 84 82 85 88 89 89 90 92 91 91 90 90 92 92 92 94 95 96 97 98 89 94 95 97 96 95 94 91 90 91 93 86
64 65 70 68 70 72 74 73 83 88 91 92 93 91 91 88 88 92 92 92 92 91 91 92 90 91 92 91 95 96 96 97 97 92 95 96 94 94 94 96 96 96 95
76 86 93 90 89 88 90 89 90 85 89 92 93 92 88 93 90 88 87 92 94 94 93 92 89 89 88 90 97 97 97 98 98 98 97 93 90 96 96 95 97 96 95
94 94 94 93 90 93 91 87 85 88 91 90 88 90 87 67 96 93 81 81 84 87 94 95 94 91 90 90 90 89 84 95 94 98 90 81 78 85 80 88 96 96 97
88 87 90 94 95 95 93 91 89 82 81 79 76 81 82 79 83 98 97 86 88 87 90 94 90 84 93 93 93 92 91 88 88 83 94 84 83 78 81 85 90 95 95
90 91 94 96 92 89 80 80 82 81 82 70 78 83 86 80 81 84 86 87 87 90 85 85 92 90 92 96 96 95 94 93 91 78 86 84 78 72 74 79 82 87 93
78 68 65 68 70 72 76 81 82 83 89 84 78 84 86 92 87 82 80 84 92 89 82 80 80 90 99 99 97 97 97 97 93 90 82 83 85 86 81 84 92 88 92
69 72 72 75 81 85 85 83 85 88 85 84 84 76 84 74 88 88 91 96 81 87 88 82 87 96 100 100 98 97 98 96 92 86 84 86 86 78 86 78 89 94 91
74 76 78 81 86 85 90 91 92 94 92 95 86 86 92 91 84 86 86 83 80 77 91 86 84 100 99 100 100 99 95 97 92 86 86 89 90 79 87 92 94 86 94
81 84 85 87 83 75 90 94 93 94 93 87 84 81 75 73 78 80 84 86 83 84 90 95 94 100 100 100 100 100 100 99 88 89 86 92 94 91 90 90 88 95 92
84 87 88 86 86 88 93 94 91 86 82 77 72 68 63 67 74 84 100 100 99 99 98 96 98 100 100 100 100 100 100 99 97 93 84 83 76 74 87 90 91 91 89
86 88 90 90 88 88 90 82 80 83 75 63 67 64 65 61 60 70 74 85 98 97 96 96 96 100 100 100 99 100 100 99 99 96 96 80 80 86 85 82 94 97 96
92 90 87 83 80 75 79 84 79 76 78 66 68 75 80 68 63 68 84 69 60 67 79 78 82 96 99 98 96 98 99 99 99 99 94 85 82 73 72 72 76 97 97
94 90 88 86 79 71 75 74 77 78 80 81 84 82 66 74 80 81 93 100 99 100 99 94 86 92 94 97 98 97 97 98 98 98 98 96 78 70 70 68 66 78 87
94 94 89 82 80 86 82 85 90 78 76 81 80 82 84 85 86 87 96 100 100 100 100 98 92 86 90 97 98 98 95 89 92 98 98 98 98 73 75 71 66 70 82
78 86 81 84 84 87 87 87 87 86 82 72 72 80 82 85 90 93 100 100 99 99 98 86 81 87 84 85 95 97 98 96 96 96 97 98 98 96 84 72 69 71 74
79 78 78 78 81 86 88 86 90 87 84 83 88 81 84 85 100 100 100 98 98 97 93 96 96 90 80 77 91 96 96 98 93 97 98 97 97 96 89 74 71 77 75
89 86 89 86 89 90 90 89 93 91 90 89 84 82 82 85 90 87 87 94 99 98 97 94 88 96 96 87 86 95 93 99 98 98 96 97 97 97 93 81 71 72 69
90 94 85 92 93 89 91 93 92 93 93 94 90 87 93 98 93 90 87 85 92 94 95 95 95 96 95 96 93 96 96 94 96 95 96 98 97 98 98 92 83 79 68
83 91 96 94 92 94 94 94 97 96 93 91 88 87 92 91 85 89 92 95 95 96 94 94 97 97 86 89 94 95 94 97 98 98 98 98 99 98 98 98 95 85 69
79 91 95 94 93 95 95 95 97 96 91 91 89 84 78 80 90 92 93 92 94 95 96 97 97 97 98 98 96 97 98 97 97 97 97 98 97 96 96 97 99 92 73
77 90 93 96 96 95 96 94 91 92 90 88 86 84 85 88 92 92 92 93 95 95 97 98 99 99 99 98 98 96 96 97 97 97 95 97 98 99 96 94 94 92 81
73 82 89 94 95 95 93 95 93 96 92 91 91 91 92 94 95 94 95 96 98 99 98 98 98 96 95 98 97 95 98 100 99 100 97 97 96 94 94 92 92 95 85
75 74 88 95 98 97 96 96 95 86 93 93 94 95 95 95 95 96 96 98 98 98 97 98 98 97 97 98 97 99 100 100 98 100 99 98 97 98 95 94 93 93 89
Wind_Speed
11 8 8 6 6 5 5 4 5 4 4 5 4 4 4 4 4 4 4 5 6 6 4 5 6 4 4 3 3 0 3 1 2 1 2 2 1 1 2 3 4 4 2
10 10 8 7 7 5 5 5 5 5 5 5 5 5 6 5 5 5 5 5 5 6 6 5 6 3 5 5 4 8 7 3 4 5 3 2 2 3 2 3 4 3 3
9 14 13 12 11 9 10 10 11 10 8 7 6 6 6 6 6 7 7 6 6 6 6 6 7 6 4 3 5 7 3 3 3 4 5 3 2 2 2 2 3 2 2
17 16 16 14 13 13 11 10 10 10 10 12 11 8 7 6 3 5 5 6 5 5 6 6 6 6 6 5 5 7 6 4 4 3 3 4 3 3 2 3 3 2 2
15 14 10 9 11 10 9 7 6 10 11 6 13 13 6 5 5 5 6 5 5 4 5 6 7 8 10 8 5 8 7 6 4 4 3 3 4 3 6 4 4 2 2
12 10 8 6 6 5 7 5 6 3 4 6 8 9 11 5 3 3 5 5 6 5 6 6 7 9 8 9 12 15 14 9 8 5 4 6 8 5 4 5 4 3 2
7 4 3 5 5 2 5 4 5 4 2 3 7 7 8 8 9 2 3 2 4 6 7 6 7 6 7 6 6 7 10 11 7 9 6 6 7 7 7 5 5 4 4
4 2 1 3 4 4 6 6 4 6 7 9 10 11 9 8 13 10 7 5 5 7 8 8 7 8 7 8 7 7 7 6 7 5 6 6 7 10 9 6 7 5 2
5 3 2 4 5 6 6 6 5 6 5 6 9 9 8 8 11 14 12 7 6 8 7 7 7 6 7 10 9 9 7 7 7 10 9 7 10 12 10 7 4 5 2
6 5 5 5 6 5 5 6 4 4 6 6 7 9 10 12 12 14 11 4 9 6 6 7 5 2 4 8 9 10 9 9 7 5 3 2 8 11 14 8 6 5 3
5 5 5 5 5 6 5 2 4 6 6 7 8 8 8 9 12 17 18 8 9 8 5 5 4 4 5 6 3 6 9 6 7 6 5 4 4 7 5 5 6 5 4
2 1 2 4 4 4 6 6 6 6 7 8 9 9 8 10 12 13 18 17 14 7 7 3 4 6 9 6 4 8 7 8 6 6 6 5 5 5 5 5 6 5 4
3 4 4 5 5 6 5 6 5 6 6 8 7 7 8 7 4 2 7 6 7 4 5 5 5 8 9 7 8 10 6 3 6 7 9 8 8 8 5 4 4 6 4
3 4 5 6 7 6 4 4 4 3 4 6 6 7 6 7 8 6 4 2 1 3 5 4 5 7 6 6 7 4 4 5 6 7 6 7 6 5 5 5 4 4 3
6 5 6 4 6 7 5 4 4 5 5 7 6 5 5 7 8 10 8 8 7 7 6 3 4 4 5 4 5 7 5 5 6 6 6 8 8 8 8 6 5 3 4
4 4 4 4 5 7 7 7 9 10 13 15 14 9 8 13 14 15 11 10 11 7 2 4 4 5 7 6 6 7 6 7 8 6 7 6 9 10 10 8 8 7 6
5 5 5 6 6 5 6 7 5 7 12 12 15 15 12 13 16 15 9 5 8 2 3 5 6 7 7 7 7 8 7 7 8 7 8 8 7 9 12 10 11 10 6
6 7 5 6 7 7 7 8 8 9 8 8 9 8 10 12 9 7 3 3 3 5 7 10 8 6 7 8 8 8 7 7 7 8 9 8 7 7 10 12 13 12 10
6 6 6 6 7 9 8 8 8 9 8 7 6 8 8 11 7 2 7 3 4 5 6 7 7 6 7 9 8 7 8 8 7 8 9 9 9 9 10 12 13 15 13
5 10 7 7 7 8 7 7 7 8 8 7 7 7 7 7 6 7 6 5 6 8 8 8 8 5 5 7 10 6 7 7 8 8 10 10 8 7 10 12 13 13 12
4 4 9 5 6 8 8 7 7 7 8 8 8 8 11 6 9 9 9 8 7 7 8 9 8 6 6 6 6 5 5 7 8 9 9 8 9 8 5 7 10 12 13
5 4 4 5 6 7 7 7 7 7 7 8 9 9 12 6 8 9 9 8 8 8 7 7 7 5 8 7 7 3 9 6 5 7 7 7 7 5 7 7 7 9 12
5 3 4 4 5 7 7 7 4 4 6 9 9 9 9 9 8 9 9 9 9 9 8 6 8 8 6 5 5 4 5 5 5 5 6 6 7 7 8 3 6 12 12
5 4 4 4 4 6 7 7 4 6 7 8 9 9 9 9 10 11 10 10 8 10 8 3 2 4 5 5 4 3 4 5 4 6 9 6 9 9 9 11 12 13 13
4 2 4 4 5 6 6 4 4 5 8 7 8 8 8 9 9 9 10 9 7 4 5 4 3 6 8 9 8 12 12 14 12 11 9 8 8 11 10 10 11 10 12
5 4 4 4 5 5 4 3 5 8 7 7 7 8 8 8 9 9 8 8 6 5 5 5 4 5 8 9 11 12 12 16 14 13 10 10 8 7 9 13 17 13 13
Wind_Direction
171 165 164 176 181 198 219 239 247 260 273 279 268 257 257 255 260 257 255 258 263 277 281 252 261 248 223 161 125 12 319 324 171 258 117 184 103 134 58 155 170 160 113
164 160 166 173 178 188 211 246 272 275 283 272 270 264 255 247 239 239 254 260 256 267 275 278 270 262 229 209 118 137 245 199 154 156 178 201 184 217 197 138 198 159 157
81 74 64 57 55 45 42 30 19 2 329 307 297 287 267 241 236 235 228 234 245 252 261 267 269 275 268 186 172 181 211 218 154 143 181 170 184 189 228 211 198 187 156
76 74 70 68 64 58 43 28 21 2 354 346 339 340 325 282 1 346 273 240 234 244 254 252 257 254 254 249 181 183 182 207 187 183 166 161 162 207 160 183 241 213 186
78 78 72 72 76 70 49 33 28 33 348 355 342 309 347 31 16 20 1 20 22 353 320 285 261 249 239 233 176 188 187 195 198 188 172 159 173 174 194 189 206 180 217
49 60 37 62 105 114 102 10 353 117 297 17 303 309 321 358 311 12 30 353 346 337 308 302 299 293 273 264 222 189 188 189 204 184 182 193 199 190 174 165 161 139 237
88 78 39 301 300 322 84 176 304 312 26 301 299 293 302 307 289 290 274 317 315 296 286 286 295 285 261 223 212 183 198 205 203 189 184 191 187 191 167 164 169 153 200
95 99 287 269 269 282 31 11 318 341 347 329 313 302 297 293 298 298 305 301 285 274 277 273 268 280 273 207 192 202 215 212 195 183 186 211 190 181 171 164 160 158 71
117 108 31 11 1 4 354 340 333 320 315 293 278 278 287 299 315 304 305 289 265 263 267 268 271 290 310 254 203 201 211 223 208 207 191 215 170 156 149 126 142 128 187
61 50 27 7 350 337 308 295 287 285 281 277 293 294 292 294 287 281 278 269 281 270 267 269 270 247 338 355 233 202 199 216 178 168 170 181 179 166 158 159 153 155 158
56 38 12 342 326 303 302 299 268 270 274 274 286 283 269 257 269 276 278 274 260 263 241 256 270 308 351 357 303 275 229 183 187 176 166 162 164 170 174 167 161 153 176
62 30 275 272 273 283 280 280 279 279 282 284 279 277 272 273 270 282 293 307 296 269 259 238 256 261 298 311 302 254 302 241 168 169 171 175 173 189 194 191 180 184 215
2 328 321 313 294 278 274 276 279 271 273 285 293 310 314 309 308 41 80 46 23 326 325 306 287 291 299 310 279 266 222 256 190 186 193 189 193 193 176 188 191 181 212
300 297 295 284 275 283 277 262 262 291 306 295 289 301 300 311 321 310 298 321 253 223 269 270 249 247 271 279 308 264 226 226 243 204 213 190 181 163 181 180 168 156 155
4 336 320 326 320 304 299 283 273 268 246 283 281 265 270 289 277 275 287 295 289 259 260 274 265 240 235 253 280 281 251 224 228 237 219 190 190 185 193 184 180 158 163
359 334 318 318 324 304 293 289 271 265 272 276 261 238 273 261 263 273 281 261 282 260 180 232 257 256 246 228 230 247 262 246 229 227 228 223 201 190 189 187 190 186 192
334 320 318 304 295 289 310 297 300 289 267 264 273 277 266 251 282 284 293 265 262 307 258 249 230 240 252 238 233 230 233 244 248 222 231 221 226 200 181 184 192 189 190
319 305 314 314 313 308 306 304 300 299 298 302 276 268 289 292 282 298 138 160 270 208 249 256 251 227 237 243 237 234 234 230 239 238 230 223 216 207 194 193 189 188 187
308 297 294 307 302 293 292 293 299 294 295 301 306 303 294 288 299 312 177 220 246 257 260 255 241 243 253 260 248 236 227 227 225 238 235 230 219 207 204 198 192 188 181
294 292 281 297 297 291 284 286 286 294 296 294 297 294 302 318 310 297 270 243 234 241 248 255 255 242 249 249 254 237 240 219 223 231 239 233 222 216 202 207 191 188 188
276 272 285 289 288 309 290 283 294 298 301 299 297 296 289 287 291 285 283 276 268 271 262 258 257 256 243 265 282 271 243 233 219 226 238 228 226 215 215 218 205 194 193
277 261 278 289 295 297 302 301 293 304 317 316 310 307 300 295 298 299 295 286 278 266 269 261 240 252 274 282 265 325 307 269 229 219 220 221 209 198 248 221 207 205 183
269 269 271 280 290 288 297 297 288 293 308 305 302 303 306 303 302 296 293 289 281 276 268 249 229 247 233 214 212 220 235 255 260 247 213 203 223 215 236 228 256 222 189
258 255 262 274 289 299 293 281 276 283 293 300 306 302 303 306 303 298 296 293 289 283 273 267 340 322 305 303 286 228 268 271 258 266 259 215 211 208 195 195 203 223 186
276 279 285 280 284 283 285 285 293 301 303 300 302 302 300 299 299 307 304 308 320 355 352 354 338 318 309 308 302 303 293 278 266 258 274 247 218 212 209 192 198 222 190
244 233 247 264 268 265 281 321 312 319 311 309 309 312 312 312 311 308 317 326 329 336 345 339 338 322 301 297 298 299 286 278 279 264 251 252 240 225 211 210 207 208 177